Flight Briefing for CPX214

Departure Arrival
Benito Juárez International Airport (MMMX)
Click to view FAA NOTAMS
Don Miguel Hidalgo y Costilla International Airport (MMGL)
Click to view FAA NOTAMS
Departure Time Arrival Time
0600 UTC 0700 UTC
Aircraft Distance
B767-300BDSF 268nm
Departure METAR Arrival METAR
MMMX 200941Z 08005KT 8SM SKC 10/05 A3027 NOSIG RMK HZY MMGL 200941Z 00000KT 8SM SKC 12/05 A3014
Suggested Route
TLC6A TLC UJ18 UPN UJ3 ONGEL ONGEL1A


View recent IFR Routes data
Notes



Charts and Procedures

Charts for MMMX
No chart available
Charts for MMGL
No chart available

Windy.com Weather Map